[[{"header":{"parameterUnit":"m.s-1","parameterCategory":1,"la1":30.2991,"la2":30.254,"lo1":-89.0895,"lo2":-89.0444,"dy":0.0017,"dx":0.0017,"nx":28,"ny":28,"refTime":"2025-12-05T03:00:00:Z","depth":0,"parameterNumber":2,"parameterNumberName":"U-component_of_WINDS"},"data":[0,0,0,0,0,0,0,0,0,0,0,0,0,0,0,0,0,0,0,0,0,0,0,0,0,0,0,0,0,0,0,0,0,0,0,0,0,0,0,0,0,0,0,0,0,0,0,0,0,0,0,0,0,0,0,0,0,0,-1.2474,-1.2473,0,-1.2419,-1.2419,-1.2418,-1.2311,-1.2309,-1.2307,-1.2305,-1.2254,-1.2254,-1.2255,0,0,0,0,0,0,0,0,0,0,0,0,0,-1.2492,-1.2492,-1.2474,-1.2473,-1.2473,-1.242,-1.2419,-1.2418,-1.2311,-1.2309,-1.2306,-1.2304,-1.2254,-1.2254,-1.2255,0,0,0,0,0,0,0,0,0,0,0,0,0,-1.2466,-1.2492,-1.2474,-1.2413,-1.2407,-1.242,-1.2419,-1.2418,-1.2312,-1.2309,-1.2306,-1.2303,-1.2253,-1.2254,-1.2255,-1.2325,0,0,-1.2258,-1.2258,0,0,0,0,0,0,0,0,-1.2467,-1.2465,-1.2423,-1.2417,-1.241,-1.2369,-1.2406,-1.2387,-1.2313,-1.2348,-1.2305,-1.2301,-1.2295,-1.2292,-1.2289,-1.2322,-1.232,-1.2258,-1.2259,-1.2259,-1.2259,0,0,0,0,0,0,0,-1.2469,-1.2467,-1.2452,-1.2422,-1.2415,-1.239,-1.2383,-1.2402,-1.234,-1.2345,-1.2337,-1.2332,-1.2291,-1.2288,-1.2287,-1.2319,-1.2258,-1.2259,-1.2259,-1.226,-1.241,-1.2414,0,0,0,0,0,0,-1.2479,-1.2469,-1.2454,-1.2451,-1.2431,-1.2393,-1.2384,-1.2385,-1.234,-1.233,-1.2335,-1.2327,-1.2288,-1.2286,-1.2285,-1.2365,-1.2259,-1.226,-1.226,-1.2407,-1.2411,-1.2415,0,0,0,0,0,0,-1.248,-1.2479,-1.2456,-1.2458,-1.2453,-1.2396,-1.2398,-1.2386,-1.2383,-1.2332,-1.2321,-1.2343,-1.2286,-1.2284,-1.2316,-1.2362,-1.226,-1.2261,-1.2403,-1.2408,-1.2413,-1.2526,0,0,0,0,0,0,-1.2481,-1.248,-1.2504,-1.2459,-1.2453,-1.2487,-1.24,-1.2387,-1.2385,-1.2374,-1.2337,-1.2328,-1.2283,-1.2315,-1.2317,-1.2362,-1.2262,-1.2398,-1.2405,-1.2411,-1.2518,-1.2535,-1.2549,0,0,0,0,0,-1.2482,-1.2538,-1.2506,-1.2505,-1.2482,-1.249,-1.2486,-1.2433,-1.2389,-1.2414,-1.2381,-1.2329,-1.2357,-1.2319,-1.232,-1.2366,-1.2395,-1.2403,-1.2411,-1.2511,-1.2531,-1.2548,0,0,0,0,0,0,-1.2591,-1.2531,-1.2494,-1.2537,-1.2519,-1.2471,-1.2501,-1.2455,-1.2451,-1.2441,-1.2377,-1.2369,-1.2411,-1.2391,-1.2351,-1.2433,-1.2368,-1.2376,-1.2444,-1.2463,-1.2478,-1.2482,-1.2263,0,0,0,0,0,-1.262,-1.2629,-1.2577,-1.262,-1.2613,-1.2559,-1.256,-1.2521,-1.25,-1.2492,-1.2462,-1.2445,-1.245,-1.2455,-1.2457,-1.2515,-1.2507,-1.2547,-1.2562,-1.2575,-1.2584,-1.2616,-1.2634,-1.244,-1.244,-1.244,0,0,-1.268,-1.2648,-1.2658,-1.2641,-1.2623,-1.2636,-1.2553,-1.257,-1.258,-1.2495,-1.2524,-1.2502,-1.2479,-1.2525,-1.2544,-1.251,-1.2635,-1.2585,-1.2595,-1.2597,-1.2626,-1.2644,-1.2661,-1.2445,-1.2445,-1.2444,0,0,-1.2797,-1.2773,-1.2807,-1.279,-1.2763,-1.2727,-1.2736,-1.2695,-1.2677,-1.2704,-1.2642,-1.2654,-1.2663,-1.2651,-1.2646,-1.2761,-1.2714,-1.2763,-1.2844,-1.2876,-1.2892,-1.2905,-1.2949,-1.2965,-1.2772,-1.2772,-1.2772,0,-1.2875,-1.2891,-1.2831,-1.2853,-1.2849,-1.2771,-1.2808,-1.2795,-1.277,-1.277,-1.2732,-1.2745,-1.2724,-1.2767,-1.2796,-1.2793,-1.2804,-1.2768,-1.2894,-1.2907,-1.2918,-1.2959,-1.2976,-1.2778,-1.2778,-1.2777,-1.2776,0,-1.299,-1.3003,-1.3034,-1.3012,-1.3011,-1.304,-1.2987,-1.2994,-1.2955,-1.2925,-1.2956,-1.2928,-1.2925,-1.2932,-1.2894,-1.2972,-1.2952,-1.2905,-1.2839,-1.2944,-1.2982,-1.2997,-1.2787,-1.2785,-1.2783,-1.2782,0,0,-1.3173,-1.3119,-1.3132,-1.3122,-1.3087,-1.3096,-1.3124,-1.3119,-1.3127,-1.3114,-1.3137,-1.3148,-1.3105,-1.3099,-1.306,-1.3088,-1.3185,-1.3038,-1.3037,-1.3069,-1.3273,-1.331,-1.3329,-1.3153,-1.3156,-1.3158,-1.3275,0,-1.3284,-1.3325,-1.3273,-1.3327,-1.3339,-1.3267,-1.3291,-1.3274,-1.3247,-1.3255,-1.3225,-1.3235,-1.3176,-1.3173,-1.3198,-1.3168,-1.3226,-1.3159,-1.3177,-1.3178,-1.3187,-1.3348,-1.3386,-1.3498,-1.3289,-1.3292,-1.3294,0,-1.3417,-1.341,-1.3465,-1.3429,-1.3433,-1.3455,-1.3448,-1.3456,-1.3437,-1.3415,-1.341,-1.3363,-1.339,-1.3325,-1.3363,-1.3319,-1.3324,-1.3311,-1.3314,-1.3315,-1.3244,-1.3355,-1.3532,-1.355,-1.3316,-1.3314,-1.3312,0,-1.3549,-1.3552,-1.3586,-1.358,-1.3538,-1.3556,-1.354,-1.3517,-1.3519,-1.3514,-1.3515,-1.3513,-1.3513,-1.3515,-1.347,-1.3426,-1.3515,-1.3445,-1.3501,-1.3502,-1.3523,-1.3523,-1.3705,-1.3523,-1.3523,-1.3523,-1.3523,0,-1.3678,-1.3716,-1.3645,-1.3666,-1.3707,-1.3648,-1.369,-1.3667,-1.3648,-1.3666,-1.3603,-1.3622,-1.356,-1.3573,-1.3538,-1.3577,-1.3577,-1.3563,-1.3553,-1.3569,-1.3572,-1.3572,-1.3564,-1.3527,-1.3526,-1.3525,-1.3525,0,-1.3832,-1.3786,-1.3819,-1.3777,-1.3768,-1.38,-1.3765,-1.3785,-1.3754,-1.3777,-1.3779,-1.3732,-1.3744,-1.3699,-1.3703,-1.368,-1.3738,-1.3715,-1.3745,-1.3739,-1.3797,-1.3793,-1.3988,-1.4012,-1.3813,-1.3815,-1.3817,0,-1.3919,-1.3945,-1.3907,-1.3914,-1.3901,-1.3912,-1.3914,-1.3858,-1.3863,-1.3844,-1.3867,-1.3873,-1.3876,-1.3899,-1.3866,-1.387,-1.3848,-1.3916,-1.3849,-1.3865,-1.3853,-1.3852,-1.3856,-1.3931,-1.3934,-1.3936,-1.3937,0,-1.4078,-1.4055,-1.4058,-1.4055,-1.4058,-1.4053,-1.4044,-1.4053,-1.3994,-1.4003,-1.4014,-1.4016,-1.4021,-1.403,-1.4027,-1.4013,-1.3967,-1.3959,-1.3972,-1.399,-1.4007,-1.4001,-1.3786,-1.3955,-1.3953,-1.3952,-1.3951,-1.395,-1.4202,-1.4224,-1.4201,-1.4208,-1.4195,-1.4189,-1.4206,-1.4177,-1.4185,-1.4184,-1.4151,-1.417,-1.4153,-1.4145,-1.4136,-1.4152,-1.412,-1.4139,-1.4144,-1.415,-1.4161,-1.4003,-1.4151,-1.415,-1.415,-1.4149,-1.4149,0,-1.4361,-1.4343,-1.435,-1.4339,-1.4346,-1.4299,-1.4288,-1.4297,-1.4314,-1.4301,-1.4305,-1.432,-1.4328,-1.4297,-1.4302,-1.4321,-1.43,-1.4325,-1.4324,-1.4322,-1.4188,-1.4177,-1.4342,-1.4342,-1.4342,-1.4341,-1.4341,-1.4341,-1.4444,-1.4479,-1.4453,-1.4483,-1.4465,-1.4481,-1.4479,-1.4475,-1.4464,-1.4483,-1.449,-1.4469,-1.445,-1.4453,-1.4461,-1.4452,-1.4458,-1.449,-1.4474,-1.435,-1.4331,-1.4313,-1.4303,-1.4491,-1.4491,-1.4607,-1.4608,-1.4609]},{"header":{"parameterUnit":"m.s-1","parameterCategory":1,"la1":30.2991,"la2":30.254,"lo1":-89.0895,"lo2":-89.0444,"dy":0.0017,"dx":0.0017,"nx":28,"ny":28,"refTime":"2025-12-05T03:00:00:Z","depth":0,"parameterNumber":3,"parameterNumberName":"V-component_of_WINDS"},"data":[0,0,0,0,0,0,0,0,0,0,0,0,0,0,0,0,0,0,0,0,0,0,0,0,0,0,0,0,0,0,0,0,0,0,0,0,0,0,0,0,0,0,0,0,0,0,0,0,0,0,0,0,0,0,0,0,0,0,-1.7126,-1.7125,0,-1.6943,-1.6941,-1.6938,-1.6982,-1.6986,-1.6989,-1.6993,-1.6785,-1.6776,-1.6768,0,0,0,0,0,0,0,0,0,0,0,0,0,-1.7495,-1.7489,-1.7127,-1.7124,-1.7122,-1.6943,-1.6941,-1.6938,-1.6981,-1.6986,-1.699,-1.6994,-1.6788,-1.6778,-1.6767,0,0,0,0,0,0,0,0,0,0,0,0,0,-1.7325,-1.7486,-1.7127,-1.7123,-1.7121,-1.6944,-1.694,-1.6937,-1.698,-1.6986,-1.6991,-1.6996,-1.6791,-1.6779,-1.6765,-1.6576,0,0,-1.6725,-1.6719,0,0,0,0,0,0,0,0,-1.7335,-1.7312,-1.7126,-1.7123,-1.712,-1.6991,-1.6995,-1.6815,-1.6979,-1.7033,-1.6993,-1.6999,-1.6848,-1.683,-1.6783,-1.6566,-1.6557,-1.6724,-1.6716,-1.671,-1.6706,0,0,0,0,0,0,0,-1.7347,-1.732,-1.7053,-1.7123,-1.7119,-1.7123,-1.7105,-1.6961,-1.6912,-1.7029,-1.7032,-1.701,-1.6847,-1.6796,-1.6779,-1.6554,-1.6724,-1.6712,-1.6704,-1.6699,-1.6163,-1.6157,0,0,0,0,0,0,-1.7364,-1.7329,-1.7059,-1.7048,-1.7244,-1.7112,-1.7092,-1.7027,-1.6914,-1.6902,-1.7006,-1.7013,-1.6816,-1.6794,-1.6772,-1.6536,-1.671,-1.6697,-1.669,-1.617,-1.6162,-1.6155,0,0,0,0,0,0,-1.7371,-1.7339,-1.7067,-1.7189,-1.7155,-1.71,-1.7027,-1.702,-1.6969,-1.6897,-1.6886,-1.6964,-1.682,-1.679,-1.6624,-1.653,-1.6691,-1.6679,-1.6177,-1.6167,-1.6159,-1.6068,0,0,0,0,0,0,-1.7382,-1.7342,-1.7274,-1.7188,-1.7149,-1.6927,-1.7021,-1.7013,-1.6949,-1.6956,-1.6854,-1.6842,-1.6822,-1.6643,-1.6611,-1.6515,-1.6669,-1.6185,-1.6173,-1.6162,-1.6079,-1.6057,-1.6038,0,0,0,0,0,-1.7395,-1.7253,-1.727,-1.7237,-1.7064,-1.6922,-1.6899,-1.6883,-1.6941,-1.6868,-1.6821,-1.6846,-1.6547,-1.6626,-1.6589,-1.6488,-1.6191,-1.6176,-1.6163,-1.6088,-1.6061,-1.6038,0,0,0,0,0,0,-1.7323,-1.7242,-1.726,-1.7087,-1.7012,-1.693,-1.6838,-1.6856,-1.6758,-1.6768,-1.6747,-1.6724,-1.6552,-1.6504,-1.6594,-1.6295,-1.6376,-1.6354,-1.6332,-1.6306,-1.6285,-1.6297,-1.6658,0,0,0,0,0,-1.7289,-1.7187,-1.7119,-1.6973,-1.6935,-1.6893,-1.6831,-1.6826,-1.6744,-1.6711,-1.6651,-1.6566,-1.6452,-1.6377,-1.6269,-1.6074,-1.6047,-1.5986,-1.5965,-1.5949,-1.5927,-1.5813,-1.5782,-1.6109,-1.6109,-1.611,0,0,-1.7213,-1.7156,-1.7092,-1.6957,-1.6898,-1.6786,-1.6866,-1.6745,-1.6659,-1.669,-1.6529,-1.6483,-1.6385,-1.6202,-1.6118,-1.6156,-1.5832,-1.5931,-1.5918,-1.5905,-1.5795,-1.5764,-1.5737,-1.61,-1.6101,-1.6103,0,0,-1.7018,-1.6968,-1.6839,-1.6779,-1.6691,-1.6664,-1.6632,-1.6547,-1.6519,-1.6359,-1.6378,-1.6273,-1.608,-1.6008,-1.5946,-1.5722,-1.5737,-1.5687,-1.5576,-1.5465,-1.5439,-1.5416,-1.5328,-1.5298,-1.5667,-1.5667,-1.5667,0,-1.6933,-1.6772,-1.6768,-1.6645,-1.6581,-1.6611,-1.6474,-1.6414,-1.6292,-1.6244,-1.6291,-1.6047,-1.5983,-1.578,-1.5726,-1.5677,-1.5634,-1.5695,-1.5445,-1.5421,-1.5399,-1.5315,-1.5283,-1.5661,-1.5662,-1.5662,-1.5663,0,-1.6669,-1.6556,-1.6461,-1.6348,-1.6274,-1.6145,-1.6114,-1.6038,-1.6039,-1.6005,-1.5837,-1.5763,-1.5638,-1.5591,-1.5589,-1.5384,-1.541,-1.5451,-1.5531,-1.5362,-1.5282,-1.5251,-1.5652,-1.5654,-1.5656,-1.5658,0,0,-1.6419,-1.6308,-1.6272,-1.6218,-1.6123,-1.6032,-1.5901,-1.5785,-1.5716,-1.5631,-1.5515,-1.5351,-1.5387,-1.5316,-1.5307,-1.521,-1.5028,-1.5261,-1.5259,-1.5214,-1.4789,-1.4754,-1.4718,-1.5041,-1.5035,-1.503,-1.4795,0,-1.621,-1.5987,-1.5978,-1.577,-1.5662,-1.5688,-1.5573,-1.5497,-1.5462,-1.5358,-1.5317,-1.5198,-1.5259,-1.5216,-1.5122,-1.507,-1.4941,-1.5088,-1.4923,-1.4917,-1.494,-1.4677,-1.464,-1.4422,-1.4764,-1.4759,-1.4756,0,-1.5936,-1.5847,-1.563,-1.5547,-1.5501,-1.5398,-1.5288,-1.5192,-1.5104,-1.5085,-1.5006,-1.5009,-1.4867,-1.4957,-1.4755,-1.4855,-1.4788,-1.4752,-1.4743,-1.472,-1.4821,-1.464,-1.4353,-1.4317,-1.4708,-1.4712,-1.4715,0,-1.5767,-1.5593,-1.5439,-1.5394,-1.5295,-1.5221,-1.5174,-1.5093,-1.5022,-1.4924,-1.4876,-1.4761,-1.4695,-1.4602,-1.457,-1.4641,-1.4367,-1.4457,-1.4338,-1.4338,-1.4274,-1.4277,-1.3963,-1.4243,-1.4243,-1.4244,-1.4244,0,-1.553,-1.5394,-1.5362,-1.5266,-1.5112,-1.5101,-1.4947,-1.4905,-1.4832,-1.4722,-1.4738,-1.4633,-1.4603,-1.449,-1.4465,-1.4297,-1.4269,-1.4242,-1.4235,-1.4237,-1.4239,-1.4186,-1.4198,-1.4235,-1.4237,-1.4239,-1.424,0,-1.5312,-1.5287,-1.512,-1.5041,-1.5018,-1.4907,-1.4835,-1.4739,-1.4707,-1.4568,-1.4534,-1.448,-1.4349,-1.4311,-1.4152,-1.4134,-1.3935,-1.3946,-1.3965,-1.3963,-1.3844,-1.3853,-1.348,-1.3426,-1.3748,-1.3745,-1.3743,0,-1.516,-1.5056,-1.4967,-1.4899,-1.4851,-1.4739,-1.4668,-1.4652,-1.4575,-1.4466,-1.4381,-1.4254,-1.4149,-1.3936,-1.3878,-1.3754,-1.3757,-1.3635,-1.3738,-1.374,-1.3745,-1.3749,-1.3734,-1.3613,-1.361,-1.3607,-1.3605,0,-1.4888,-1.4881,-1.4781,-1.4675,-1.459,-1.4505,-1.4422,-1.4363,-1.4333,-1.4245,-1.4114,-1.4034,-1.3873,-1.3742,-1.3617,-1.3561,-1.3572,-1.3574,-1.3539,-1.3534,-1.3547,-1.3531,-1.3904,-1.3581,-1.3583,-1.3585,-1.3586,-1.3587,-1.4693,-1.46,-1.4523,-1.4409,-1.4346,-1.4268,-1.4173,-1.4131,-1.4023,-1.3895,-1.3891,-1.3746,-1.3655,-1.3489,-1.3427,-1.3307,-1.3342,-1.3293,-1.3279,-1.3265,-1.3251,-1.3574,-1.3285,-1.3286,-1.3287,-1.3287,-1.3288,0,-1.4416,-1.4368,-1.4264,-1.415,-1.4058,-1.4089,-1.3998,-1.3916,-1.3791,-1.3709,-1.3608,-1.3453,-1.3326,-1.3259,-1.313,-1.3047,-1.3048,-1.3012,-1.3014,-1.2999,-1.3232,-1.3272,-1.3012,-1.3013,-1.3013,-1.3013,-1.3013,-1.3013,-1.426,-1.4103,-1.4086,-1.3895,-1.3846,-1.3709,-1.3653,-1.3578,-1.3513,-1.3341,-1.3238,-1.3198,-1.3118,-1.2984,-1.2865,-1.2848,-1.2796,-1.2754,-1.2739,-1.2956,-1.2984,-1.301,-1.3047,-1.2745,-1.2745,-1.2516,-1.2513,-1.2512]}]]